User: anonymous   Login
Location: Unspecified
(0.0000°N, 0.0000°E)
Time: 20:43:17
(UTC+02:00)
Language:

Meteor PRIRODA - Orbit

View from above orbital plane
View from above orbital plane
View from above satellite
View from above satellite

Ground track
Ground track

The orbit data is extracted from the following two-line orbital elements,

1 12585U 81065A   17290.05437663  .00001167  00000-0  56357-4 0  9999
2 12585  97.4449 267.7102 0014135 340.8469  19.2233 15.20568328980785
Epoch (UTC): 17 October 2017 01:18:18
Eccentricity: 0.0014135
inclination: 97.4449°
perigee height: 494 km
apogee height: 514 km
right ascension of ascending node: 267.7102°
argument of perigee: 340.8469°
revolutions per day: 15.20568328
mean anomaly at epoch: 19.2233°
orbit number at epoch: 98078

The dashed part of the orbit path shows where the satellite is in the earth's shadow,  

DLR